Showing default

COSMOS 2575, 58929

Orbit data source: Space-Track

COSMOS 2575, 58929 is a payload satellite owned by MO RF (CIS) in SSO that was launched on Fri, 09 Feb 2024 UTC via a SOYUZ-2-1V launch vehicle from the Plesetsk Missile And Space Complex (PKMTR). Payload-class satellites include a variety of spacecraft equipped with specific instruments for various scientific and technological missions. These include communications satellites like Starlink; space stations such as the ISS; scientific satellites like the Hubble; Earth observation satellites from companies like Planet Labs, Umbra, and HawkEye 360; GPS; miniature CubeSats for education and research; and military/defense satellites.

Not visible in the next 10 days
Identifier
58929, 2024-026A
Orbit
SSO
Country
Flag of CISCIS
Related business
Manufacturer
VNIIEM
Mission
Operational Defense Imaging
Bus & Motor
EMKA, Unknown motor
Mass
520 kg wet, ~500 kg dry
Launch date (UTC)
2024-02-09 (2 years ago)
Launch vehicle
SOYUZ-2-1V
Launch site
Plesetsk Missile And Space Complex (PKMTR)
Object type
Payload
Rocket body
Debris
Shape & HBR
Cyl + 2 Pan, 1.5 m
Radar Cross Section
3.727 m², Large (>1 m²)

Expand to show TLE details & history
Last TLE update: 9 hours ago

TLE from 9 hours ago
0 COSMOS 2575
1 58929U 24026A   25293.53565188  .00006019  00000-0  40707-4 0  9997
2 58929  96.6522 182.9950 0002396  44.1687 315.9771 15.75393243 97909
Epoch: 2025-10-20T12:51Z
TLE epoch observation values (Epoch: 2025-10-20T12:51:20.322Z)
Latitude
-0.00002°
Longitude
-39.07624°
Altitude
345.54 km
Speed
7.702 km/s
True Right ascension
12h 11m 58s
True Declination
0° 00' 00"
Sunlit
Object was in daylight at epoch
Visualization orbit readout
Latitude
Unknown
Longitude
Unknown
Altitude
Unknown
Speed
Unknown
Apparent Right ascension
Unknown
Apparent Declination
Unknown
Sunlit
N/A
Visualization observer readout
Local Sidereal Time
16:45:25
Azimuth
Unknown
Elevation
Unknown
Doppler factor
Unknown
Orbital elements
Apogee altitude
341.983 km
Perigee altitude
338.764 km
Semi-major axis
6,718.51 km
Eccentricity
0.00024
Inclination
96.6522°
RAAN
182.995°
Arg. of periapsis
44.1687°
True anomaly
315.95802°
Mean anomaly
315.9771°
Eccentric anomaly
315.96756°
Mean motion
3.94125 °/min
Orbital period
91.34 mins
BSTAR
0.000040707
Loading maneuver chart data...
Computing Atmospheric mass density...
Loading historical data...
Loading historical data...
Loading historical data...
Loading historical data...
Loading historical data...
Loading historical data...
Loading historical data...
Other satellites on launch #26 in the year 2024 (2024-02-09 UTC)

Documentation

Showing up to 5 results
|